sat.trackr.live / text

‹ back to catalog

ONEWEB-0442

NORAD 51636 · 2022-012Q

PAYLOAD ACTIVE UNKNOWN

§ Identity

Operator
Country
UK
Launch date
2022-02-10
Launch site
FRGUI
Launch vehicle
Mass (kg)
RCS (m²)

Purposes: comms

External: N2YO · Heavens-Above · Gunter

§ Orbital elements

Epoch: 2026-09-20T04:49:06.253248Z

Period
109.29 min
Inclination
87.9196°
Eccentricity
0.0002220
Mean motion
13.17650557 rev/d
Perigee alt
1,192.0 km
Apogee alt
1,195.4 km
Semi-major
7,571.8 km
B*
7.4297e-5
RAAN
347.0110°
Arg perigee
114.3704°
Mean anomaly
245.7660°
Rev number
22,618

§ Raw data

ONEWEB-04421 51636U 22012Q   26263.20076682  .00000042  00000+0  74297-4 0  99962 51636  87.9196 347.0110 0002220 114.3704 245.7660 13.17650557226184

JSON: /api/v1/satellites/51636 · /tle

For live sub-satellite position, see the globe view (requires WebGL).

§ Visibility from observer

Set your observer location to see the next 7 days of passes ≥ 10°. The values pass through the URL so the page stays shareable.

No JS? Fill the form by hand. The geolocation button needs JavaScript.